• In Hungary
  • List of Countries
  • For 7 days
  • Water Temperature
  • Satellite Maps
  • Weather Map
  • News
  • Weather Widgets
  • user-avatar
    Login

    Hourly Weather Karlstejn

    Today, 23 September, Sunday

    Time Temperature Precipitation Wind Pressure Humidity
    00:00 +12°C° 0.1 mm 3 mps 738 mmHg 75%
    01:00 +12°C° 0 mm 3 mps 737 mmHg 73%
    02:00 +12°C° 0 mm 3 mps 737 mmHg 74%
    03:00 +12°C° 0 mm 3 mps 737 mmHg 75%
    04:00 +11°C° 0 mm 3 mps 737 mmHg 76%
    05:00 +11°C° 0.2 mm 3 mps 737 mmHg 78%
    06:00 +11°C° 0.2 mm 3 mps 736 mmHg 80%
    07:00 +11°C° 0 mm 3 mps 736 mmHg 80%
    08:00 +11°C° 0.2 mm 3 mps 735 mmHg 81%
    09:00 +11°C° 0.2 mm 3 mps 735 mmHg 82%
    10:00 +11°C° 0.2 mm 3 mps 735 mmHg 83%
    11:00 +12°C° 0.3 mm 3 mps 734 mmHg 84%
    12:00 +12°C° 0.3 mm 3 mps 733 mmHg 85%
    13:00 +13°C° 0.3 mm 4 mps 732 mmHg 86%
    14:00 +14°C° 0.1 mm 4 mps 731 mmHg 84%
    15:00 +16°C° 0.1 mm 5 mps 729 mmHg 83%
    16:00 +19°C° 0.1 mm 5 mps 728 mmHg 82%
    17:00 +19°C° 0.1 mm 6 mps 727 mmHg 80%
    18:00 +20°C° 0.1 mm 7 mps 726 mmHg 79%
    19:00 +20°C° 0.1 mm 8 mps 725 mmHg 78%
    20:00 +17°C° 3 mm 8 mps 726 mmHg 81%
    21:00 +14°C° 3 mm 7 mps 727 mmHg 84%
    22:00 +10°C° 3 mm 7 mps 728 mmHg 87%
    23:00 +10°C° 0.1 mm 7 mps 730 mmHg 85%

    Tomorrow, 24 September, Monday

    Time Temperature Precipitation Wind Pressure Humidity
    00:00 +9°C° 0.1 mm 7 mps 732 mmHg 84%
    01:00 +7°C° 0.1 mm 8 mps 735 mmHg 83%
    02:00 +8°C° 0 mm 7 mps 736 mmHg 82%
    03:00 +8°C° 0 mm 6 mps 737 mmHg 82%
    04:00 +7°C° 0 mm 6 mps 738 mmHg 82%
    05:00 +7°C° 0 mm 6 mps 739 mmHg 81%
    06:00 +6°C° 0 mm 7 mps 739 mmHg 79%
    07:00 +6°C° 0 mm 7 mps 740 mmHg 78%
    08:00 +8°C° 0 mm 7 mps 741 mmHg 73%
    09:00 +9°C° 0 mm 8 mps 742 mmHg 68%
    10:00 +9°C° 0 mm 8 mps 743 mmHg 62%
    11:00 +10°C° 0.1 mm 8 mps 743 mmHg 58%
    12:00 +11°C° 0.1 mm 8 mps 743 mmHg 53%
    13:00 +12°C° 0.1 mm 8 mps 743 mmHg 49%
    14:00 +11°C° 0.1 mm 8 mps 744 mmHg 50%
    15:00 +11°C° 0.1 mm 8 mps 744 mmHg 52%
    16:00 +10°C° 0.1 mm 7 mps 744 mmHg 54%
    17:00 +9°C° 0 mm 6 mps 744 mmHg 58%
    18:00 +8°C° 0 mm 5 mps 745 mmHg 62%
    19:00 +7°C° 0 mm 4 mps 745 mmHg 67%
    20:00 +7°C° 0 mm 4 mps 746 mmHg 69%
    21:00 +6°C° 0 mm 4 mps 746 mmHg 71%
    22:00 +6°C° 0 mm 4 mps 747 mmHg 73%
    23:00 +5°C° 0 mm 4 mps 747 mmHg 75%

    Day after tomorrow, 25 September, Tuesday

    Time Temperature Precipitation Wind Pressure Humidity
    00:00 +5°C° 0 mm 4 mps 747 mmHg 76%
    01:00 +5°C° 0 mm 3 mps 748 mmHg 78%
    02:00 +4°C° 0 mm 3 mps 748 mmHg 80%
    03:00 +4°C° 0 mm 3 mps 748 mmHg 83%
    04:00 +3°C° 0 mm 3 mps 748 mmHg 85%
    05:00 +3°C° 0 mm 3 mps 749 mmHg 84%
    06:00 +3°C° 0 mm 3 mps 749 mmHg 83%
    07:00 +4°C° 0 mm 3 mps 749 mmHg 82%
    08:00 +5°C° 0 mm 3 mps 750 mmHg 73%
    09:00 +8°C° 0 mm 3 mps 750 mmHg 64%
    10:00 +10°C° 0 mm 4 mps 750 mmHg 55%
    11:00 +10°C° 0 mm 3 mps 750 mmHg 51%
    12:00 +11°C° 0 mm 3 mps 750 mmHg 46%
    13:00 +12°C° 0 mm 3 mps 750 mmHg 42%
    14:00 +12°C° 0 mm 3 mps 750 mmHg 43%
    15:00 +12°C° 0 mm 3 mps 750 mmHg 44%
    16:00 +12°C° 0 mm 3 mps 750 mmHg 44%
    17:00 +10°C° 0 mm 2 mps 750 mmHg 50%
    18:00 +9°C° 0 mm 2 mps 750 mmHg 56%
    19:00 +8°C° 0 mm 1 mps 750 mmHg 62%
    20:00 +7°C° 0 mm 1 mps 750 mmHg 65%
    21:00 +7°C° 0 mm 1 mps 750 mmHg 67%
    22:00 +5°C° 0 mm 0 mps 751 mmHg 69%
    23:00 +5°C° 0 mm 0 mps 750 mmHg 70%

    26 September, Wednesday

    Time Temperature Precipitation Wind Pressure Humidity
    00:00 +6°C° 0 mm 1 mps 750 mmHg 72%
    01:00 +5°C° 0 mm 1 mps 750 mmHg 73%
    02:00 +5°C° 0 mm 1 mps 750 mmHg 74%
    03:00 +5°C° 0 mm 1 mps 749 mmHg 75%
    04:00 +5°C° 0 mm 1 mps 749 mmHg 75%
    05:00 +5°C° 0 mm 1 mps 749 mmHg 74%
    06:00 +5°C° 0 mm 1 mps 749 mmHg 73%
    07:00 +6°C° 0 mm 1 mps 749 mmHg 72%
    08:00 +8°C° 0 mm 1 mps 749 mmHg 65%
    09:00 +9°C° 0 mm 2 mps 749 mmHg 57%
    10:00 +12°C° 0 mm 2 mps 748 mmHg 49%
    11:00 +13°C° 0 mm 2 mps 748 mmHg 45%
    12:00 +15°C° 0 mm 2 mps 748 mmHg 41%
    13:00 +16°C° 0 mm 2 mps 747 mmHg 37%
    14:00 +16°C° 0 mm 2 mps 747 mmHg 39%
    15:00 +16°C° 0 mm 2 mps 746 mmHg 41%
    16:00 +16°C° 0 mm 2 mps 746 mmHg 42%
    17:00 +15°C° 0 mm 1 mps 746 mmHg 47%
    18:00 +13°C° 0 mm 1 mps 746 mmHg 52%
    19:00 +11°C° 0 mm 1 mps 746 mmHg 57%
    20:00 +11°C° 0 mm 1 mps 746 mmHg 58%
    21:00 +9°C° 0 mm 2 mps 746 mmHg 59%
    22:00 +9°C° 0 mm 2 mps 746 mmHg 60%
    23:00 +9°C° 0 mm 2 mps 746 mmHg 61%

    27 September, Thursday

    Time Temperature Precipitation Wind Pressure Humidity
    00:00 +9°C° 0 mm 2 mps 746 mmHg 61%
    01:00 +8°C° 0 mm 2 mps 745 mmHg 61%
    02:00 +8°C° 0 mm 2 mps 745 mmHg 61%
    03:00 +8°C° 0 mm 2 mps 745 mmHg 61%
    04:00 +8°C° 0 mm 2 mps 745 mmHg 61%
    05:00 +8°C° 0 mm 2 mps 745 mmHg 61%
    06:00 +8°C° 0 mm 2 mps 745 mmHg 61%
    07:00 +9°C° 0 mm 2 mps 745 mmHg 61%
    08:00 +12°C° 0 mm 2 mps 745 mmHg 56%
    09:00 +15°C° 0 mm 2 mps 745 mmHg 50%
    10:00 +17°C° 0 mm 2 mps 745 mmHg 45%
    11:00 +19°C° 0 mm 2 mps 745 mmHg 43%
    12:00 +20°C° 0 mm 2 mps 744 mmHg 41%
    13:00 +23°C° 0 mm 2 mps 744 mmHg 40%
    14:00 +23°C° 0 mm 2 mps 743 mmHg 42%
    15:00 +23°C° 0 mm 2 mps 743 mmHg 44%
    16:00 +23°C° 0 mm 1 mps 742 mmHg 46%
    17:00 +21°C° 0 mm 1 mps 742 mmHg 51%
    18:00 +19°C° 0 mm 1 mps 742 mmHg 56%
    19:00 +16°C° 0 mm 1 mps 742 mmHg 61%
    20:00 +15°C° 0 mm 1 mps 741 mmHg 62%
    21:00 +15°C° 0 mm 1 mps 741 mmHg 63%
    22:00 +14°C° 0 mm 1 mps 741 mmHg 65%
    23:00 +13°C° 0 mm 1 mps 741 mmHg 66%

    28 September, Friday

    Time Temperature Precipitation Wind Pressure Humidity
    00:00 +13°C° 0 mm 1 mps 740 mmHg 68%
    01:00 +12°C° 0 mm 1 mps 740 mmHg 69%
    02:00 +12°C° 0 mm 2 mps 740 mmHg 72%
    03:00 +12°C° 0 mm 2 mps 739 mmHg 74%
    04:00 +10°C° 0 mm 2 mps 739 mmHg 76%
    05:00 +10°C° 0 mm 2 mps 739 mmHg 76%
    06:00 +10°C° 0 mm 2 mps 739 mmHg 77%
    07:00 +10°C° 0 mm 2 mps 739 mmHg 77%
    08:00 +14°C° 0 mm 2 mps 739 mmHg 70%
    09:00 +16°C° 0 mm 2 mps 739 mmHg 62%
    10:00 +18°C° 0 mm 2 mps 739 mmHg 55%
    11:00 +19°C° 0 mm 2 mps 738 mmHg 50%
    12:00 +20°C° 0 mm 2 mps 738 mmHg 46%
    13:00 +21°C° 0 mm 2 mps 738 mmHg 42%
    14:00 +21°C° 0 mm 2 mps 738 mmHg 43%
    15:00 +22°C° 0 mm 1 mps 737 mmHg 44%
    16:00 +22°C° 0 mm 1 mps 737 mmHg 45%
    17:00 +20°C° 0 mm 1 mps 737 mmHg 52%
    18:00 +18°C° 0 mm 1 mps 737 mmHg 58%
    19:00 +15°C° 0 mm 1 mps 738 mmHg 65%
    20:00 +14°C° 0 mm 1 mps 738 mmHg 70%
    21:00 +13°C° 0 mm 1 mps 738 mmHg 75%
    22:00 +13°C° 0 mm 1 mps 738 mmHg 80%
    23:00 +12°C° 0 mm 1 mps 738 mmHg 84%
    Show more